Tracking 29892 objects as of 21-Nov-2024
HD Live streaming from Space Station
objects crossing your sky now

CZ-6A DEB

Track CZ-6A DEB now!
10-day predictions


NORAD ID: 56606
Int'l Code: 2022-151AEE
Perigee: 835.7 km
Apogee: 903.1 km
Inclination: 98.8 °
Period: 102.2 minutes
Semi major axis: 7240 km
RCS: Unknown
Launch date: November 11, 2022
Source: People's Republic of China (PRC)
Launch site: Taiyaun Space Center, China (TSC)

Note: This is SATELLITE DEBRIS
Your satellite tracking list
Your tracking list is empty




NASA's NSSDC Master Catalog

Two Line Element Set (TLE):
1 56606U 22151AEE 24324.45768125  .00000204  00000-0  14116-3 0  9999
2 56606  98.8282 323.7928 0046505 159.8281 200.4740 14.09160452 80861
Source of the keplerian elements: AFSPC